Location: Prague
(50.0830°N, 14.4670°E)
Time: 15:09:26
(UTC+01:00)

ITUPSAT 1 - Pass Details

Date: 02 December 2021
Orbit: 700 x 713 km, 98.6° (Epoch: 26 January)

Event Time Altitude Azimuth Distance (km) Brightness Sun altitude
Rises 05:14:51 0° 117° (ESE) 3,096 ? -22.4°
Reaches altitude 10° 05:17:42 10° 99° (E) 2,184 ? -22.0°
Maximum altitude 05:20:56 18° 57° (ENE) 1,690 ? -21.5°
Drops below altitude 10° 05:24:11 10° 14° (NNE) 2,199 ? -21.0°
Sets 05:27:03 0° 357° (N) 3,125 ? -20.5°
